EW8300 Weather Reports


time (UTC)temp
C
wind
direction
speed
KPH
gust
KPH
rain 1hr
cm
rain 24hr
cm
rain mn
cm
humidity
%
barometer
mb
20260505124602 14 49 0.0 3.2 0.00 0.79 0.79 93 1006.6
20260505123044 14 50 0.0 3.2 0.00 0.79 0.79 94 1006.6
20260505121551 14 54 0.0 0.0 0.00 0.79 0.79 94 1006.6
20260505120129 13 25 0.0 0.0 0.00 0.79 0.79 94 1007.0
20260505114522 13 40 0.0 0.0 0.00 0.79 0.79 94 1007.1
20260505113109 13 57 0.0 0.0 0.00 0.79 0.79 94 1006.9
20260505111530 13 75 0.0 0.0 0.00 0.79 0.79 94 1006.6
20260505101548 14 223 0.0 0.0 0.25 0.79 0.79 93 1007.2
20260505100012 14 223 0.0 0.0 0.38 0.76 0.76 93 1007.8
20260505094613 14 223 0.0 0.0 0.69 0.69 0.69 92 1007.8
20260505093119 14 203 0.0 0.0 0.64 0.64 0.64 91 1007.9
20260505091553 15 242 0.0 12.9 0.53 0.53 0.53 89 1007.8
20260505090010 17 249 0.0 22.5 0.36 0.36 0.36 78 1007.1
20260505084604 19 268 0.0 1.6 0.00 0.00 0.00 57 1006.0
20260505083019 19 272 0.0 1.6 0.00 0.00 0.00 57 1005.3
20260505081600 19 303 0.0 1.6 0.00 0.00 0.00 57 1005.1
20260505080007 19 295 0.0 1.6 0.00 0.00 0.00 57 1004.5
20260505074514 19 92 0.0 0.0 0.00 0.00 0.00 57 1004.5
20260505073117 19 164 0.0 11.3 0.00 0.00 0.00 56 1004.6
20260505071544 19 162 0.0 1.6 0.00 0.00 0.00 57 1004.5
20260505070107 19 339 0.0 1.6 0.00 0.00 0.00 59 1004.5
20260505064702 19 99 0.0 1.6 0.00 0.00 0.00 58 1004.6
20260505063107 18 84 0.0 3.2 0.00 0.00 0.00 59 1004.7
20260505061544 18 200 0.0 0.0 0.00 0.00 0.00 59 1004.7
20260505060004 18 62 0.0 1.6 0.00 0.00 0.00 59 1004.8
20260505054542 19 110 0.0 0.0 0.00 0.00 0.00 59 1004.6
20260505053016 19 74 0.0 3.2 0.00 0.00 0.00 58 1004.4
20260505051507 18 116 0.0 3.2 0.00 0.00 0.00 58 1004.4
20260505050110 18 77 0.0 0.0 0.00 0.00 0.00 59 1004.2
20260505041514 18 4 0.0 0.0 0.00 0.00 0.00 63 1004.5
20260505040114 16 65 0.0 0.0 0.00 0.00 0.00 71 1004.8
20260505034524 16 52 0.0 0.0 0.00 0.00 0.00 75 1004.9
20260505033107 16 137 0.0 0.0 0.00 0.00 0.00 77 1005.0
20260505031506 16 52 0.0 0.0 0.00 0.00 0.00 76 1004.8
20260505030129 16 52 0.0 0.0 0.00 0.00 0.00 72 1004.7
20260505024502 17 50 0.0 0.0 0.00 0.00 0.00 71 1004.5
20260505023100 17 50 0.0 0.0 0.00 0.00 0.00 70 1004.4
20260505021544 17 45 0.0 0.0 0.00 0.00 0.00 69 1004.2
20260505020020 19 46 0.0 0.0 0.00 0.00 0.00 61 1003.8
20260505014518 20 47 0.0 0.0 0.00 0.00 0.00 58 1003.6
20260505013039 20 57 0.0 0.0 0.00 0.00 0.00 57 1003.3
20260505011555 20 49 0.0 0.0 0.00 0.00 0.00 58 1003.3
20260505010018 20 67 0.0 0.0 0.00 0.00 0.00 54 1003.2
20260505004551 21 68 0.0 0.0 0.00 0.00 0.00 52 1003.3
20260505003014 21 135 0.0 0.0 0.00 0.00 0.00 53 1003.3
20260505001508 22 73 0.0 0.0 0.00 0.00 0.00 51 1003.4
20260505000003 23 199 0.0 0.0 0.00 0.00 0.00 47 1003.6
20260504234502 23 31 0.0 11.3 0.00 0.00 0.00 47 1003.8
20260504233024 23 256 0.0 8.0 0.00 0.00 0.00 48 1004.0
20260504231626 23 152 0.0 3.2 0.00 0.00 0.00 49 1004.0
20260504230013 24 169 0.0 1.6 0.00 0.00 0.00 46 1004.4
20260504224615 24 56 0.0 6.4 0.00 0.00 0.00 46 1004.6
20260504223014 25 184 0.0 3.2 0.00 0.00 0.00 43 1004.7
20260504221612 25 160 1.6 12.9 0.00 0.00 0.00 42 1004.8
20260504220106 25 259 0.0 17.7 0.00 0.00 0.00 41 1004.7
20260504214604 25 185 0.0 6.4 0.00 0.00 0.00 41 1004.8
20260504213027 26 179 0.0 14.5 0.00 0.00 0.00 38 1004.7
20260504211547 26 166 0.0 14.5 0.00 0.00 0.00 41 1004.8
20260504210018 26 251 0.0 8.0 0.00 0.00 0.00 45 1005.1
20260504204511 26 100 0.0 1.6 0.00 0.00 0.00 43 1005.1
20260504203108 26 256 0.0 9.7 0.00 0.00 0.00 43 1005.1
20260504201556 26 22 0.0 9.7 0.00 0.00 0.00 46 1005.4
20260504200015 25 242 0.0 0.0 0.00 0.00 0.00 45 1005.5
20260504194611 24 230 0.0 0.0 0.00 0.00 0.00 50 1005.9
20260504193027 24 251 0.0 11.3 0.00 0.00 0.00 48 1006.2
20260504191623 25 202 0.0 0.0 0.00 0.00 0.00 48 1006.5
20260504190019 24 249 0.0 8.0 0.00 0.00 0.00 48 1006.7
20260504184538 24 182 0.0 4.8 0.00 0.00 0.00 52 1006.8
20260504183107 22 206 0.0 0.0 0.00 0.00 0.00 55 1006.9
20260504181547 22 264 0.0 6.4 0.00 0.00 0.00 55 1007.0
20260504180029 22 285 0.0 6.4 0.00 0.00 0.00 56 1007.0
20260504174603 21 224 0.0 1.6 0.00 0.00 0.00 56 1007.1
20260504173104 21 70 0.0 9.7 0.00 0.00 0.00 56 1007.1
20260504171550 21 268 0.0 1.6 0.00 0.00 0.00 55 1007.1